sat.trackr.live / text

‹ back to catalog

STARLINK-30957

NORAD 58453 · 2023-183S

PAYLOAD ACTIVE UNKNOWN

§ Identity

Operator
Country
US
Launch date
2023-11-28
Launch site
AFETR
Launch vehicle
Mass (kg)
RCS (m²)

Purposes: comms

External: N2YO · Heavens-Above · Gunter

§ Orbital elements

Epoch: 2026-09-20T09:27:59.061312Z

Period
94.27 min
Inclination
43.0043°
Eccentricity
0.0001210
Mean motion
15.27576298 rev/d
Perigee alt
482.2 km
Apogee alt
483.9 km
Semi-major
6,861.2 km
B*
-7.0452e-6
RAAN
21.8786°
Arg perigee
259.0512°
Mean anomaly
101.0204°
Rev number
15,651

§ Raw data

STARLINK-309571 58453U 23183S   26263.39443358 -.00000456  00000+0 -70452-5 0  99992 58453  43.0043  21.8786 0001210 259.0512 101.0204 15.27576298156519

JSON: /api/v1/satellites/58453 · /tle

For live sub-satellite position, see the globe view (requires WebGL).

§ Visibility from observer

Set your observer location to see the next 7 days of passes ≥ 10°. The values pass through the URL so the page stays shareable.

No JS? Fill the form by hand. The geolocation button needs JavaScript.